WB5HZM-3 Weather Reports


time (UTC)temp
F
wind
direction
speed
knots
gust
knots
rain 1hr
in
rain 24hr
in
rain mn
in
humidity
%
barometer
mb
20260505124311 71 128 1.7 5.2 0.00 0.00 0.00 85 1009.8
20260505123312 70 140 1.7 3.5 0.00 0.00 0.00 86 1009.4
20260505122328 70 126 0.9 3.5 0.00 0.00 0.00 85 1009.4
20260505121323 70 125 1.7 3.5 0.00 0.00 0.00 85 1009.8
20260505120324 70 138 0.9 2.6 0.00 0.00 0.00 85 1009.8
20260505115319 70 125 0.9 2.6 0.00 0.00 0.00 86 1009.5
20260505114315 70 135 0.9 2.6 0.00 0.00 0.00 86 1009.7
20260505113315 69 142 0.9 2.6 0.00 0.00 0.00 86 1009.7
20260505112331 69 103 0.9 4.3 0.00 0.00 0.00 86 1009.4
20260505111325 69 136 0.9 2.6 0.00 0.00 0.00 86 1009.3
20260505110225 69 135 0.9 3.5 0.00 0.00 0.00 86 1009.4
20260505101228 69 178 0.9 3.5 0.00 0.00 0.00 86 1009.5
20260505100224 69 127 1.7 3.5 0.00 0.00 0.00 86 1009.5
20260505095224 69 150 1.7 7.0 0.00 0.00 0.00 86 1009.6
20260505094240 69 128 2.6 5.2 0.00 0.00 0.00 86 1009.6
20260505093237 69 123 0.9 3.5 0.00 0.00 0.00 86 1009.8
20260505092238 69 95 1.7 5.2 0.00 0.00 0.00 86 1009.9
20260505091233 70 169 0.0 2.6 0.00 0.00 0.00 86 1010.0
20260505090230 70 190 0.9 4.3 0.00 0.00 0.00 86 1010.0
20260505085224 70 120 1.7 5.2 0.00 0.00 0.00 85 1010.0
20260505084244 70 190 1.7 2.6 0.00 0.00 0.00 85 1010.0
20260505083240 70 157 0.9 4.3 0.00 0.00 0.00 85 1010.2
20260505082236 70 153 0.0 2.6 0.00 0.00 0.00 85 1010.4
20260505081235 70 169 0.9 2.6 0.00 0.00 0.00 85 1010.5
20260505080229 70 136 2.6 7.0 0.00 0.00 0.00 85 1010.2
20260505075244 70 200 2.6 3.5 0.00 0.00 0.00 84 1010.3
20260505074240 70 157 1.7 4.3 0.00 0.00 0.00 84 1010.3
20260505073240 70 137 0.9 3.5 0.00 0.00 0.00 84 1010.3
20260505072236 70 184 0.9 6.1 0.00 0.00 0.00 84 1010.6
20260505071231 70 178 1.7 4.3 0.00 0.00 0.00 84 1010.7
20260505070250 70 202 1.7 7.0 0.00 0.00 0.00 83 1010.7
20260505065247 70 188 0.9 6.1 0.00 0.00 0.00 83 1010.8
20260505064242 71 129 0.9 3.5 0.00 0.00 0.00 83 1011.0
20260505063243 71 182 1.7 4.3 0.00 0.00 0.00 83 1010.9
20260505062240 71 200 1.7 3.5 0.00 0.00 0.00 83 1010.9
20260505061235 71 155 0.9 6.1 0.00 0.00 0.00 83 1011.0
20260505060250 71 173 2.6 6.1 0.00 0.00 0.00 82 1011.1
20260505055251 71 142 1.7 6.1 0.00 0.00 0.00 82 1011.0
20260505054247 71 155 2.6 7.0 0.00 0.00 0.00 82 1011.1
20260505053243 71 215 1.7 7.0 0.00 0.00 0.00 82 1011.3
20260505052243 71 198 1.7 4.3 0.00 0.00 0.00 82 1011.5
20260505051240 71 184 1.7 3.5 0.00 0.00 0.00 82 1011.5
20260505050257 71 213 1.7 8.7 0.00 0.00 0.00 82 1011.3
20260505041247 71 179 1.7 6.1 0.00 0.00 0.00 81 1011.6
20260505040244 71 192 1.7 7.0 0.00 0.00 0.00 81 1011.5
20260505035300 71 137 3.5 6.1 0.00 0.00 0.00 80 1011.7
20260505034301 71 192 2.6 7.0 0.00 0.00 0.00 80 1011.7
20260505033257 71 133 1.7 6.1 0.00 0.00 0.00 80 1011.7
20260505032254 71 146 1.7 6.1 0.00 0.00 0.00 80 1011.9
20260505031250 71 153 2.6 7.0 0.00 0.00 0.00 80 1011.8
20260505030249 72 120 1.7 6.1 0.00 0.00 0.00 79 1011.8
20260505025305 72 158 2.6 4.3 0.00 0.00 0.00 79 1011.7
20260505024300 72 155 3.5 8.7 0.00 0.00 0.00 78 1011.6
20260505023300 72 147 3.5 8.7 0.00 0.00 0.00 78 1011.6
20260505022256 72 103 3.5 7.8 0.00 0.00 0.00 77 1011.6
20260505021252 73 171 2.6 9.6 0.00 0.00 0.00 76 1011.4
20260505020253 73 142 1.7 8.7 0.00 0.00 0.00 76 1011.4
20260505015308 73 168 2.6 6.1 0.00 0.00 0.00 75 1011.1
20260505014302 74 255 2.6 8.7 0.00 0.00 0.00 75 1011.2
20260505013258 74 144 2.6 9.6 0.00 0.00 0.00 75 1011.1
20260505012256 74 150 3.5 7.8 0.00 0.00 0.00 74 1011.1
20260505011312 74 153 3.5 10.4 0.00 0.00 0.00 74 1011.1
20260505010308 74 148 2.6 7.0 0.00 0.00 0.00 73 1010.9
20260505005309 74 163 1.7 7.8 0.00 0.00 0.00 72 1010.8
20260505004305 75 174 3.5 10.4 0.00 0.00 0.00 71 1011.1
20260505003302 75 73 1.7 5.2 0.00 0.00 0.00 71 1011.2
20260505002258 76 216 2.6 7.8 0.00 0.00 0.00 70 1011.1
20260505001259 76 196 3.5 10.4 0.00 0.00 0.00 69 1011.1
20260505000316 76 186 4.3 10.4 0.00 0.00 0.00 69 1011.2
20260504235312 77 207 3.5 16.5 0.00 0.00 0.00 68 1011.2
20260504234312 77 213 3.5 9.6 0.00 0.00 0.00 67 1011.1
20260504233308 78 151 4.3 11.3 0.00 0.00 0.00 67 1011.2
20260504232305 78 133 4.3 7.8 0.00 0.00 0.00 67 1011.4
20260504231306 78 203 3.5 13.0 0.00 0.00 0.00 66 1011.8
20260504230302 79 169 3.5 7.0 0.00 0.00 0.00 65 1011.7
20260504225319 79 94 2.6 12.2 0.00 0.00 0.00 65 1011.6
20260504224315 80 147 3.5 8.7 0.00 0.00 0.00 63 1011.6
20260504223315 80 131 2.6 11.3 0.00 0.00 0.00 62 1011.8
20260504222310 81 106 3.5 10.4 0.00 0.00 0.00 61 1011.8
20260504221306 81 217 3.5 11.3 0.00 0.00 0.00 59 1011.8
20260504220306 81 150 2.6 8.7 0.00 0.00 0.00 59 1011.9
20260504215323 81 145 2.6 7.8 0.00 0.00 0.00 56 1012.0
20260504214320 81 158 2.6 7.8 0.00 0.00 0.00 57 1012.1
20260504213316 81 160 3.5 8.7 0.00 0.00 0.00 55 1012.2
20260504212317 81 196 3.5 7.8 0.00 0.00 0.00 55 1012.3
20260504211313 81 150 2.6 9.6 0.00 0.00 0.00 55 1012.7
20260504210308 81 205 4.3 8.7 0.00 0.00 0.00 55 1012.8
20260504205327 81 208 3.5 11.3 0.00 0.00 0.00 54 1012.9
20260504204323 82 153 3.5 8.7 0.00 0.00 0.00 53 1013.1
20260504203320 82 221 3.5 8.7 0.00 0.00 0.00 53 1013.2
20260504202320 81 227 3.5 11.3 0.00 0.00 0.00 54 1013.3
20260504201317 81 127 5.2 9.6 0.00 0.00 0.00 53 1013.8
20260504200313 81 121 1.7 8.7 0.00 0.00 0.00 53 1013.9
20260504195329 82 218 3.5 8.7 0.00 0.00 0.00 51 1013.9
20260504194329 82 150 4.3 8.7 0.00 0.00 0.00 50 1014.1
20260504193323 81 180 2.6 10.4 0.00 0.00 0.00 51 1014.1
20260504192320 81 133 3.5 9.6 0.00 0.00 0.00 50 1014.3
20260504191320 81 148 4.3 14.8 0.00 0.00 0.00 51 1014.5
20260504190318 81 154 2.6 5.2 0.00 0.00 0.00 52 1014.5
20260504185333 80 88 1.7 9.6 0.00 0.00 0.00 52 1014.7
20260504184327 80 196 3.5 11.3 0.00 0.00 0.00 52 1014.8
20260504183326 80 182 2.6 8.7 0.00 0.00 0.00 53 1014.9
20260504182320 79 217 4.3 13.0 0.00 0.00 0.00 51 1015.0
20260504181335 79 198 3.5 7.0 0.00 0.00 0.00 54 1015.3
20260504180334 79 126 2.6 9.6 0.00 0.00 0.00 54 1015.4
20260504175329 79 152 3.5 7.8 0.00 0.00 0.00 53 1015.4
20260504174323 79 138 2.6 6.1 0.00 0.00 0.00 55 1015.6
20260504173321 78 142 4.3 12.2 0.00 0.00 0.00 55 1015.8
20260504172335 78 165 4.3 10.4 0.00 0.00 0.00 54 1015.9
20260504171331 78 199 1.7 9.6 0.00 0.00 0.00 55 1016.0
20260504170326 77 189 5.2 12.2 0.00 0.00 0.00 54 1016.2
20260504160325 75 126 1.7 8.7 0.00 0.00 0.00 56 1017.0
20260504150327 73 134 3.5 12.2 0.00 0.00 0.00 59 1017.1
20260504141330 71 134 0.9 7.8 0.00 0.00 0.00 65 1017.3
20260504140330 70 131 2.6 7.8 0.00 0.00 0.00 66 1017.3